Blackwell, OK

7:51 AM CST on December 16, 2017 (GMT -0600)
Blackwell

Weather History for KBKN - November, 2013

Change the Weather History Date:

Wednesday, November 20, 2013

  Actual Average (KPNC) Record (KPNC)
Temperature  
Mean Temperature 56 °F -  
Max Temperature 62 °F 61 °F 80 °F (2007)
Min Temperature 50 °F 34 °F 17 °F (1952)
Degree Days  
Heating Degree Days 9    
Growing Degree Days 6 (Base 50)    
Moisture  
Dew Point 39 °F    
Average Humidity 56    
Maximum Humidity 72    
Minimum Humidity 38    
Precipitation  
Precipitation 0.00 in - - ()
Sea Level Pressure  
Sea Level Pressure 29.85 in    
Wind  
Wind Speed 17 mph (SSE)    
Max Wind Speed 23 mph    
Max Gust Speed 29 mph    
Visibility 10 miles    
Events      
Averages and records for this station are not official NWS values.
T = Trace of Precipitation, MM = Missing Value Source: NWS Daily Summary

Daily Weather History Graph

Daily Weather History Graph

Search for Another Location

Airport or City:

Trip Planner

Search our weather history database for the weather conditions in past years. The results will help you decide how hot, cold, wet, or windy it might be!

Date:

Astronomy

Nov. 20, 2013 Rise Set
Actual Time 7:12 AM CST 5:17 PM CST
Civil Twilight 6:44 AM CST 5:44 PM CST
Nautical Twilight 6:13 AM CST 6:16 PM CST
Astronomical Twilight 5:42 AM CST 6:47 PM CST
Moon 8:01 PM CST (11/20) 9:38 AM CST (11/20)
Length of Visible Light 11h 00m
Length of Day
10h 04m
Waning Gibbous, 91% of the Moon is Illuminated
Nov 20
Waning Gibbous
Nov 25
Last Quarter
Dec 2
New
Dec 9
First Quarter
Dec 17
Full

Hourly Weather History & Observations

Time (CST) Temp. Dew Point Humidity Pressure Visibility Wind Dir Wind Speed Gust Speed Precip Events Conditions
12:15 AM 51.8 °F 28.4 °F 41% 29.91 in 10.0 mi SSE 19.6 mph 24.2 mph N/A   Overcast
12:35 AM 51.8 °F 28.4 °F 41% 29.90 in 10.0 mi SSE 17.3 mph - N/A   Overcast
12:55 AM 51.8 °F 28.4 °F 41% 29.90 in 10.0 mi SSE 17.3 mph 23.0 mph N/A   Overcast
1:15 AM 53.6 °F 28.4 °F 38% 29.89 in 10.0 mi SSE 17.3 mph 24.2 mph N/A   Overcast
1:35 AM 53.6 °F 28.4 °F 38% 29.88 in 10.0 mi SSE 21.9 mph 28.8 mph N/A   Overcast
1:55 AM 53.6 °F 28.4 °F 38% 29.88 in 10.0 mi SSE 23.0 mph 27.6 mph N/A   Overcast
2:15 AM 51.8 °F 28.4 °F 41% 29.88 in 10.0 mi SSE 23.0 mph - N/A   Overcast
2:35 AM 51.8 °F 28.4 °F 41% 29.88 in 10.0 mi SSE 20.7 mph 28.8 mph N/A   Overcast
2:55 AM 51.8 °F 28.4 °F 41% 29.87 in 10.0 mi SSE 23.0 mph 27.6 mph N/A   Overcast
3:15 AM 50.0 °F 28.4 °F 43% 29.86 in 10.0 mi SSE 19.6 mph 25.3 mph N/A   Mostly Cloudy
3:35 AM 50.0 °F 28.4 °F 43% 29.86 in 10.0 mi SSE 19.6 mph 25.3 mph N/A   Scattered Clouds
3:55 AM 50.0 °F 28.4 °F 43% 29.86 in 10.0 mi SSE 18.4 mph 26.5 mph N/A   Scattered Clouds
4:15 AM 50.0 °F 28.4 °F 43% 29.85 in 10.0 mi SSE 17.3 mph 24.2 mph N/A   Mostly Cloudy
4:35 AM 50.0 °F 30.2 °F 47% 29.85 in 10.0 mi SSE 16.1 mph 24.2 mph N/A   Overcast
4:55 AM 50.0 °F 30.2 °F 47% 29.84 in 10.0 mi SSE 17.3 mph 21.9 mph N/A   Overcast
5:15 AM 50.0 °F 30.2 °F 47% 29.84 in 10.0 mi SSE 18.4 mph 23.0 mph N/A   Overcast
5:35 AM 51.8 °F 30.2 °F 44% 29.83 in 10.0 mi SSE 19.6 mph 24.2 mph N/A   Overcast
5:55 AM 51.8 °F 30.2 °F 44% 29.84 in 10.0 mi SSE 17.3 mph - N/A   Overcast
6:15 AM 51.8 °F 32.0 °F 47% 29.83 in 10.0 mi SSE 19.6 mph 23.0 mph N/A   Overcast
6:35 AM 53.6 °F 32.0 °F 44% 29.82 in 10.0 mi SSE 20.7 mph 24.2 mph N/A   Overcast
6:55 AM 53.6 °F 32.0 °F 44% 29.82 in 10.0 mi SSE 20.7 mph 27.6 mph N/A   Overcast
7:15 AM 53.6 °F 32.0 °F 44% 29.83 in 10.0 mi SSE 19.6 mph 28.8 mph N/A   Overcast
7:35 AM 53.6 °F 33.8 °F 47% 29.84 in 10.0 mi SSE 19.6 mph 24.2 mph N/A   Overcast
7:55 AM 53.6 °F 35.6 °F 51% 29.84 in 10.0 mi SSE 16.1 mph - N/A   Overcast
8:15 AM 53.6 °F 35.6 °F 51% 29.84 in 10.0 mi SSE 17.3 mph 24.2 mph N/A   Overcast
8:35 AM 53.6 °F 35.6 °F 51% 29.85 in 10.0 mi South 17.3 mph 23.0 mph N/A   Overcast
8:55 AM 53.6 °F 37.4 °F 54% 29.86 in 10.0 mi South 15.0 mph - N/A   Overcast
9:15 AM 55.4 °F 39.2 °F 54% 29.85 in 10.0 mi South 19.6 mph 25.3 mph N/A   Overcast
9:35 AM 55.4 °F 39.2 °F 54% 29.86 in 10.0 mi South 16.1 mph 25.3 mph N/A   Overcast
9:55 AM 55.4 °F 39.2 °F 54% 29.86 in 10.0 mi South 20.7 mph 28.8 mph N/A   Overcast
10:15 AM 55.4 °F 39.2 °F 54% 29.86 in 10.0 mi South 20.7 mph 25.3 mph N/A   Overcast
10:35 AM 55.4 °F 39.2 °F 54% 29.86 in 10.0 mi South 19.6 mph 23.0 mph N/A   Overcast
10:55 AM 57.2 °F 41.0 °F 55% 29.86 in 10.0 mi South 18.4 mph 25.3 mph N/A   Overcast
11:15 AM 57.2 °F 44.6 °F 63% 29.86 in 10.0 mi South 20.7 mph 28.8 mph N/A   Overcast
11:35 AM 57.2 °F 44.6 °F 63% 29.85 in 10.0 mi South 20.7 mph 26.5 mph N/A   Overcast
11:55 AM 57.2 °F 44.6 °F 63% 29.84 in 10.0 mi South 19.6 mph 24.2 mph N/A   Overcast
12:15 PM 57.2 °F 44.6 °F 63% 29.83 in 10.0 mi South 19.6 mph - N/A   Overcast
12:35 PM 59.0 °F 44.6 °F 59% 29.82 in 10.0 mi South 16.1 mph - N/A   Overcast
12:55 PM 59.0 °F 46.4 °F 63% 29.81 in 10.0 mi South 17.3 mph - N/A   Overcast
1:15 PM 60.8 °F 46.4 °F 59% 29.81 in 10.0 mi South 16.1 mph - N/A   Overcast
1:35 PM 60.8 °F 46.4 °F 59% 29.80 in 10.0 mi South 15.0 mph - N/A   Overcast
1:55 PM 62.6 °F 48.2 °F 59% 29.80 in 10.0 mi South 12.7 mph - N/A   Overcast
2:15 PM 62.6 °F 46.4 °F 55% 29.80 in 10.0 mi South 12.7 mph - N/A   Overcast
2:35 PM 62.6 °F 48.2 °F 59% 29.80 in 10.0 mi South 12.7 mph - N/A   Overcast
2:55 PM 62.6 °F 48.2 °F 59% 29.80 in 10.0 mi South 17.3 mph - N/A   Overcast
3:15 PM 60.8 °F 48.2 °F 63% 29.81 in 10.0 mi South 18.4 mph - N/A   Overcast
3:35 PM 60.8 °F 48.2 °F 63% 29.81 in 10.0 mi South 12.7 mph - N/A   Overcast
3:55 PM 59.0 °F 48.2 °F 67% 29.81 in 10.0 mi SSE 11.5 mph - N/A   Overcast
4:15 PM 59.0 °F 46.4 °F 63% 29.82 in 10.0 mi SSE 10.4 mph - N/A   Overcast
4:35 PM 59.0 °F 48.2 °F 67% 29.82 in 10.0 mi SSE 11.5 mph 17.3 mph N/A   Overcast
4:55 PM 59.0 °F 46.4 °F 63% 29.82 in 10.0 mi SSE 11.5 mph - N/A   Overcast
5:15 PM 59.0 °F 46.4 °F 63% 29.83 in 10.0 mi SSE 9.2 mph - N/A   Mostly Cloudy
5:35 PM 59.0 °F 46.4 °F 63% 29.84 in 10.0 mi SE 8.1 mph - N/A   Overcast
5:55 PM 59.0 °F 46.4 °F 63% 29.84 in 10.0 mi SSE 10.4 mph - N/A   Overcast
6:15 PM 57.2 °F 44.6 °F 63% 29.85 in 10.0 mi SSE 12.7 mph - N/A   Overcast
6:35 PM 57.2 °F 44.6 °F 63% 29.86 in 10.0 mi SSE 12.7 mph - N/A   Overcast
6:55 PM 57.2 °F 44.6 °F 63% 29.87 in 10.0 mi SSE 10.4 mph - N/A   Overcast
7:15 PM 57.2 °F 44.6 °F 63% 29.87 in 10.0 mi SSE 13.8 mph - N/A   Overcast
7:35 PM 57.2 °F 44.6 °F 63% 29.86 in 10.0 mi SSE 12.7 mph - N/A   Overcast
7:55 PM 55.4 °F 46.4 °F 72% 29.86 in 10.0 mi SSE 12.7 mph - N/A   Overcast
8:15 PM 55.4 °F 44.6 °F 67% 29.86 in 10.0 mi SSE 10.4 mph - N/A   Mostly Cloudy
8:35 PM 55.4 °F 44.6 °F 67% 29.86 in 10.0 mi SSE 8.1 mph - N/A   Mostly Cloudy
8:55 PM 55.4 °F 44.6 °F 67% 29.87 in 10.0 mi SSE 10.4 mph - N/A   Mostly Cloudy
9:15 PM 53.6 °F 44.6 °F 72% 29.88 in 10.0 mi SSE 8.1 mph - N/A   Overcast
9:35 PM 53.6 °F 42.8 °F 67% 29.89 in 10.0 mi SE 6.9 mph - N/A   Overcast
9:55 PM 53.6 °F 42.8 °F 67% 29.90 in 10.0 mi SE 6.9 mph - N/A   Overcast
10:15 PM 53.6 °F 42.8 °F 67% 29.89 in 10.0 mi SE 4.6 mph - N/A   Mostly Cloudy
10:35 PM 53.6 °F 42.8 °F 67% 29.91 in 10.0 mi SSE 3.5 mph - N/A   Overcast
10:55 PM 53.6 °F 42.8 °F 67% 29.90 in 10.0 mi ESE 3.5 mph - N/A   Mostly Cloudy
11:15 PM 53.6 °F 42.8 °F 67% 29.90 in 10.0 mi ESE 5.8 mph - N/A   Mostly Cloudy
11:35 PM 53.6 °F 44.6 °F 72% 29.89 in 10.0 mi ESE 6.9 mph - N/A   Overcast
11:55 PM 53.6 °F 44.6 °F 72% 29.89 in 10.0 mi SE 4.6 mph - N/A   Mostly Cloudy